Change the Weather History Date:

Monday, October 8, 2012

  Actual Average (KTUS) Record (KTUS)
Temperature  
Mean Temperature 68 °F 74 °F  
Max Temperature 86 °F 88 °F 101 °F (1910)
Min Temperature 50 °F 60 °F 42 °F (1970)
Degree Days  
Heating Degree Days 0 0  
Month to date heating degree days 0  
Since 1 July heating degree days 0  
Cooling Degree Days 3 9  
Month to date cooling degree days 83  
Year to date cooling degree days 2990  
Growing Degree Days 18 (Base 50)    
Moisture  
Dew Point 32 °F    
Average Humidity 30    
Maximum Humidity 54    
Minimum Humidity 11    
Precipitation  
Precipitation 0.00 in 0.03 in 0.67 in (2014)
Month to date precipitation 0.28  
Year to date precipitation 9.48  
Sea Level Pressure  
Sea Level Pressure 29.90 in    
Wind  
Wind Speed 3 mph (South)    
Max Wind Speed 14 mph    
Max Gust Speed 18 mph    
Visibility 10 miles    
Events      
T = Trace of Precipitation, MM = Missing Value Source: NWS Daily Summary

Daily Weather History Graph

Daily Weather History Graph

Search for Another Location

Airport or City:

Trip Planner

Search our weather history database for the weather conditions in past years. The results will help you decide how hot, cold, wet, or windy it might be!

Date:

Astronomy

Oct. 08, 2012 Rise Set
Actual Time 6:21 AM MST 5:59 PM MST
Civil Twilight 5:57 AM MST 6:23 PM MST
Nautical Twilight 5:29 AM MST 6:51 PM MST
Astronomical Twilight 5:01 AM MST 7:19 PM MST
Moon No Moon Rise 1:27 PM MST (10/8)
Length of Visible Light 12h 25m
Length of Day
11h 37m
Last Quarter, 45% of the Moon is Illuminated
Oct 8
Last Quarter
Oct 15
New
Oct 21
First Quarter
Oct 29
Full
Nov 6
Last Quarter

Hourly Weather History & Observations

Time (MST) Temp. Dew Point Humidity Pressure Visibility Wind Dir Wind Speed Gust Speed Precip Events Conditions
12:54 AM 57.9 °F 33.1 °F 39% 29.89 in 10.0 mi Calm Calm - N/A   Clear
1:54 AM 55.0 °F 33.1 °F 43% 29.89 in 10.0 mi Calm Calm - N/A   Clear
2:54 AM 53.1 °F 33.1 °F 47% 29.88 in 10.0 mi Calm Calm - N/A   Clear
3:54 AM 52.0 °F 34.0 °F 50% 29.89 in 10.0 mi Calm Calm - N/A   Clear
4:54 AM 50.0 °F 34.0 °F 54% 29.90 in 10.0 mi ENE 3.5 mph - N/A   Clear
5:54 AM 51.1 °F 34.0 °F 52% 29.93 in 10.0 mi Calm Calm - N/A   Clear
6:54 AM 52.0 °F 35.1 °F 53% 29.95 in 10.0 mi SSW 3.5 mph - N/A   Clear
7:54 AM 57.9 °F 34.0 °F 41% 29.97 in 10.0 mi South 3.5 mph - N/A   Clear
8:54 AM 68.0 °F 35.1 °F 30% 29.97 in 10.0 mi South 3.5 mph - N/A   Clear
9:54 AM 75.9 °F 36.0 °F 23% 29.95 in 10.0 mi Calm Calm - N/A   Clear
10:54 AM 82.0 °F 33.1 °F 17% 29.91 in 10.0 mi South 9.2 mph - N/A   Clear
11:54 AM 82.9 °F 27.0 °F 13% 29.90 in 10.0 mi SW 8.1 mph - N/A   Clear
12:54 PM 84.9 °F 26.1 °F 12% 29.87 in 10.0 mi South 13.8 mph - N/A   Clear
1:54 PM 84.9 °F 24.1 °F 11% 29.86 in 10.0 mi WSW 6.9 mph 18.4 mph N/A   Clear
2:54 PM 86.0 °F 27.0 °F 12% 29.85 in 10.0 mi South 8.1 mph - N/A   Clear
3:54 PM 86.0 °F 28.9 °F 13% 29.85 in 10.0 mi SW 8.1 mph - N/A   Clear
4:54 PM 84.0 °F 26.1 °F 12% 29.86 in 10.0 mi SW 10.4 mph - N/A   Clear
5:54 PM 79.0 °F 27.0 °F 15% 29.87 in 10.0 mi SW 5.8 mph - N/A   Clear
6:54 PM 73.0 °F 28.9 °F 20% 29.89 in 10.0 mi Calm Calm - N/A   Clear
7:54 PM 66.9 °F 32.0 °F 27% 29.91 in 10.0 mi East 5.8 mph - N/A   Clear
8:54 PM 66.0 °F 34.0 °F 30% 29.92 in 10.0 mi Calm Calm - N/A   Clear
9:54 PM 63.0 °F 36.0 °F 37% 29.92 in 10.0 mi Calm Calm - N/A   Clear
10:54 PM 64.0 °F 34.0 °F 33% 29.91 in 10.0 mi ESE 4.6 mph - N/A   Clear
11:54 PM 68.0 °F 30.9 °F 25% 29.90 in 10.0 mi SSE 3.5 mph - N/A   Clear